COSMOS 1275 DEB, 12692

Orbit data source: Space-Track

COSMOS 1275 DEB, 12692 is space debris in LEO originally from a launch on Thu, 04 Jun 1981 UTC launched from the Plesetsk Missile And Space Complex (PKMTR). Debris objects in space refer to the collection of defunct objects orbiting the Earth. Examples of debris include non-operational satellites, rocket bodies, and fragments generated from explosions, collisions, or faulty payload assembly.

Loading next visibility...
COSMOS 1275 DEB details
Identifier
12692, 1981-053AL
Orbit
LEO
Last TLE update5 hours ago
Origin
Flag of CISVMF (CIS)
ManufacturerUnknown
MissionSpacecraft
Bus & MotorUnknown
MassUnknown
Launch date (UTC)
1981-06-04 (44 years ago)
Launch vehicleUnknown
Launch site
Plesetsk Missile And Space Complex (PKMTR)
Object type
Payload
Rocket body
Debris
Shape & HBRUnknown
Radar Cross Section0.500 m², Medium (>0.1 m² and < 1m²)

Expand to show TLE details & history

TLE from 5 hours ago
0 COSMOS 1275 DEB
1 12692U 81053AL  24361.29166103  .00006412  00000-0  23686-2 0  9991
2 12692  82.8971 115.1054 0070237 217.0837 142.5487 14.30951290241003
Epoch: 2024-12-26T06:59Z
Definitive object data (Epoch: 2024-12-26T06:59:59.513Z)
Latitude0.00001°
Longitude-85.16573°
Altitude831.628 km
Speed7.416 km/s
True Right ascension07h 40m 25s
True Declination0° 00' 00"
Sunlit
Object was in full shadow at TLE epoch
Visualization TLE readout
Latitude35.55337°
Longitude-80.26073°
Altitude843.695 km
Speed7.408 km/s
Apparent Right ascension04h 27m 56s
Apparent Declination1° 15' 13"
Sunlit
Object is in full shadow
Visualization observer readout
Local Sidereal Time11:33:39
Azimuth281.679° WNW
Elevation-11.703°
Doppler factor1
Orbital elements
Apogee altitude835.942 km
Perigee altitude735.31 km
Semi-major axis7,163.763 km
Eccentricity0.0070237
Inclination82.8971°
RAAN115.1054°
Arg. of periapsis217.0837°
True anomaly143.03473°
Mean anomaly142.5487°
Eccentric anomaly142.79205°
Mean motion3.57957 °/min
BSTAR0.0023686
Orbital period100.57 mins
Loading maneuver chart data...
Loading historical data...
Loading historical data...
Loading historical data...
Loading historical data...
Loading historical data...
Loading historical data...
Loading historical data...

COSMOS 1275 DEB Visibility forecast

Observer location: undefined°, undefined

Span
Click to sort rows by Start time (UTC) header in descending order
Start Az.
Max El. time (UTC)
Max El. Az.
Max El.
End time (UTC)
End Az.
9 mins2024-12-26 19:19:10.882Z5.051° NNE2024-12-26 19:24:10.882Z85.776° E36.731°2024-12-26 19:28:10.882Z150.57° SSE
5 mins2024-12-26 21:03:10.882Z299.983° NW2024-12-26 21:05:10.882Z272.137° WNW17.116°2024-12-26 21:08:10.882Z235.644° WSW
8 mins2024-12-27 08:18:10.882Z171.039° S2024-12-27 08:22:10.882Z61.931° ENE41.93°2024-12-27 08:26:10.882Z14.24° NNE
4 mins2024-12-27 10:02:10.882Z273.795° WNW2024-12-27 10:03:10.882Z285.902° WNW14.784°2024-12-27 10:06:10.882Z321.009° NNW
|